Weather History for Hebron, NE

Change the Weather History Date:

Thursday, November 7, 2013

  Actual Average Record
Temperature  
Mean Temperature 42 °F -  
Max Temperature 53 °F 52 °F 80 °F (1980)
Min Temperature 32 °F 29 °F 1 °F (1991)
Degree Days  
Heating Degree Days 22    
Moisture  
Dew Point 29 °F    
Average Humidity 68    
Maximum Humidity 91    
Minimum Humidity 35    
Precipitation  
Precipitation 0.00 in - - ()
Sea Level Pressure  
Sea Level Pressure 30.36 in    
Wind  
Wind Speed 5 mph (WNW)    
Max Wind Speed 12 mph    
Max Gust Speed 17 mph    
Visibility 10 miles    
Events      
Averages and records for this station are not official NWS values.
T = Trace of Precipitation, MM = Missing Value Source: NWS Daily Summary

Daily Weather History Graph

Daily Weather History Graph

Search for Another Location

Airport:

Trip Planner

Search our weather history database for the weather conditions in past years. The results will help you decide how hot, cold, wet, or windy it might be!

Date:

Astronomy

Nov. 07, 2013 Rise Set
Actual Time 7:06 AM CST 5:20 PM CST
Civil Twilight 6:38 AM CST 5:49 PM CST
Nautical Twilight 6:05 AM CST 6:21 PM CST
Astronomical Twilight 5:34 AM CST 6:53 PM CST
Moon 11:16 AM CST (11/7) 9:33 PM CST (11/7)
Length of Visible Light 11h 10m
Length of Day
10h 13m
Waxing Crescent, 23% of the Moon is Illuminated
Nov 7
Waxing Crescent
Nov 9
First Quarter
Nov 17
Full
Nov 25
Last Quarter
Dec 2
New

Hourly Weather History & Observations

Time (CST) Temp. Windchill Dew Point Humidity Pressure Visibility Wind Dir Wind Speed Gust Speed Precip Events Conditions
12:15 AM 34.2 °F 30.0 °F 31.3 °F 89% 30.30 in 10.0 mi West 4.6 mph - N/A   Clear
12:35 AM 33.8 °F 30.8 °F 30.9 °F 89% 30.30 in 10.0 mi West 3.5 mph - N/A   Clear
12:55 AM 32.5 °F - 30.2 °F 91% 30.31 in 10.0 mi Calm Calm - N/A   Clear
1:55 AM 33.4 °F - 30.0 °F 87% 30.31 in 10.0 mi Calm Calm - N/A   Clear
2:15 AM 32.7 °F 29.6 °F 29.1 °F 87% 30.31 in 10.0 mi West 3.5 mph - N/A   Clear
2:35 AM 32.4 °F 26.9 °F 28.9 °F 87% 30.31 in 10.0 mi West 5.8 mph - N/A   Clear
2:55 AM 32.0 °F 26.4 °F 28.6 °F 87% 30.32 in 10.0 mi West 5.8 mph - N/A   Clear
3:15 AM 33.3 °F 27.9 °F 28.4 °F 82% 30.32 in 10.0 mi West 5.8 mph - N/A   Clear
3:35 AM 33.1 °F 28.7 °F 28.4 °F 83% 30.33 in 10.0 mi WNW 4.6 mph - N/A   Clear
3:55 AM 34.2 °F 29.0 °F 28.9 °F 81% 30.33 in 10.0 mi West 5.8 mph - N/A   Clear
4:15 AM 33.8 °F 28.6 °F 28.8 °F 82% 30.34 in 10.0 mi West 5.8 mph - N/A   Clear
4:35 AM 34.0 °F 28.0 °F 29.1 °F 82% 30.33 in 10.0 mi West 6.9 mph - N/A   Clear
4:55 AM 32.9 °F 27.5 °F 28.8 °F 85% 30.35 in 10.0 mi West 5.8 mph - N/A   Clear
5:15 AM 33.3 °F 28.9 °F 28.8 °F 84% 30.36 in 10.0 mi West 4.6 mph - N/A   Clear
5:35 AM 33.4 °F 29.1 °F 28.9 °F 84% 30.36 in 10.0 mi West 4.6 mph - N/A   Clear
5:55 AM 34.0 °F 29.8 °F 29.3 °F 83% 30.37 in 10.0 mi West 4.6 mph - N/A   Clear
6:15 AM 33.8 °F 29.6 °F 29.3 °F 84% 30.37 in 10.0 mi WNW 4.6 mph - N/A   Clear
6:35 AM 33.4 °F 29.1 °F 29.1 °F 84% 30.37 in 10.0 mi WNW 4.6 mph - N/A   Clear
6:55 AM 33.6 °F 29.4 °F 29.3 °F 84% 30.38 in 10.0 mi WNW 4.6 mph - N/A   Clear
7:15 AM 33.6 °F 29.4 °F 29.3 °F 84% 30.39 in 10.0 mi West 4.6 mph - N/A   Clear
7:35 AM 33.8 °F 29.6 °F 29.3 °F 84% 30.40 in 10.0 mi WSW 4.6 mph - N/A   Clear
7:55 AM 34.7 °F 29.6 °F 30.2 °F 84% 30.41 in 10.0 mi West 5.8 mph - N/A   Clear
8:15 AM 36.3 °F 31.6 °F 30.9 °F 81% 30.42 in 10.0 mi West 5.8 mph - N/A   Clear
8:35 AM 37.4 °F 31.4 °F 31.6 °F 80% 30.42 in 10.0 mi NW 8.1 mph - N/A   Clear
8:55 AM 38.7 °F 32.9 °F 32.0 °F 77% 30.43 in 10.0 mi NW 8.1 mph - N/A   Clear
9:15 AM 39.6 °F 34.0 °F 32.4 °F 75% 30.44 in 10.0 mi NW 8.1 mph - N/A   Clear
9:35 AM 41.4 °F 36.2 °F 33.1 °F 72% 30.44 in 10.0 mi NW 8.1 mph - N/A   Clear
9:55 AM 43.0 °F 37.7 °F 33.1 °F 68% 30.44 in 10.0 mi NW 9.2 mph - N/A   Clear
10:15 AM 45.0 °F 40.1 °F 32.5 °F 62% 30.44 in 10.0 mi NNW 9.2 mph - N/A   Clear
10:35 AM 46.6 °F - 31.5 °F 56% 30.45 in 10.0 mi North 9.2 mph - N/A   Clear
10:55 AM 47.1 °F - 30.9 °F 53% 30.44 in 10.0 mi NNW 6.9 mph - N/A   Clear
11:15 AM 48.6 °F - 28.0 °F 45% 30.44 in 10.0 mi NNW 11.5 mph - N/A   Clear
11:35 AM 49.5 °F - 28.0 °F 44% 30.43 in 10.0 mi NNW 10.4 mph - N/A   Clear
11:55 AM 50.2 °F - 24.8 °F 37% 30.42 in 10.0 mi North 10.4 mph 17.3 mph N/A   Clear
12:15 PM 50.5 °F - 27.3 °F 41% 30.42 in 10.0 mi NNW 10.4 mph - N/A   Clear
12:35 PM 51.1 °F - 27.3 °F 40% 30.41 in 10.0 mi North 9.2 mph - N/A   Clear
12:55 PM 51.4 °F - 27.9 °F 40% 30.40 in 10.0 mi North 6.9 mph - N/A   Clear
1:15 PM 51.8 °F - 26.8 °F 38% 30.39 in 10.0 mi NW 5.8 mph - N/A   Clear
1:35 PM 52.5 °F - 25.2 °F 35% 30.39 in 10.0 mi North 9.2 mph - N/A   Clear
1:55 PM 52.7 °F - 27.1 °F 37% 30.38 in 10.0 mi NNW 9.2 mph - N/A   Clear
2:15 PM 52.7 °F - 26.4 °F 36% 30.38 in 10.0 mi NNW 8.1 mph - N/A   Clear
2:35 PM 53.1 °F - 27.0 °F 37% 30.37 in 10.0 mi WNW 4.6 mph - N/A   Clear
2:55 PM 52.9 °F - 25.7 °F 35% 30.36 in 10.0 mi NNW 4.6 mph - N/A   Clear
3:15 PM 52.9 °F - 25.5 °F 35% 30.36 in 10.0 mi North 3.5 mph - N/A   Clear
3:35 PM 53.2 °F - 25.9 °F 35% 30.36 in 10.0 mi North 5.8 mph - N/A   Clear
3:55 PM 52.9 °F - 25.9 °F 35% 30.36 in 10.0 mi North 5.8 mph - N/A   Clear
4:55 PM 50.9 °F - 27.0 °F 40% 30.35 in 10.0 mi Calm Calm - N/A   Clear
5:15 PM 48.0 °F - 28.2 °F 46% 30.34 in 10.0 mi Calm Calm - N/A   Clear
5:35 PM 46.4 °F - 28.8 °F 50% 30.34 in 10.0 mi Calm Calm - N/A   Clear
5:55 PM 41.2 °F - 31.1 °F 67% 30.34 in 10.0 mi Calm Calm - N/A   Clear
6:15 PM 41.0 °F 39.0 °F 30.7 °F 67% 30.34 in 10.0 mi South 3.5 mph - N/A   Clear
6:35 PM 40.1 °F - 30.4 °F 68% 30.35 in 10.0 mi Calm Calm - N/A   Clear
6:55 PM 38.3 °F - 30.0 °F 72% 30.34 in 10.0 mi Calm Calm - N/A   Clear
7:15 PM 37.6 °F - 30.6 °F 76% 30.34 in 10.0 mi Calm Calm - N/A   Clear
7:35 PM 36.7 °F - 29.7 °F 76% 30.34 in 10.0 mi Calm Calm - N/A   Clear
7:55 PM 36.7 °F - 30.2 °F 77% 30.33 in 10.0 mi Calm Calm - N/A   Clear
8:15 PM 36.7 °F - 30.2 °F 77% 30.32 in 10.0 mi Calm Calm - N/A   Clear
8:35 PM 34.7 °F - 29.5 °F 81% 30.32 in 10.0 mi Calm Calm - N/A   Clear
8:55 PM 35.1 °F - 30.0 °F 82% 30.31 in 10.0 mi Calm Calm - N/A   Clear
9:15 PM 34.7 °F - 29.7 °F 82% 30.30 in 10.0 mi Calm Calm - N/A   Clear
9:35 PM 33.8 °F - 30.0 °F 86% 30.30 in 10.0 mi Calm Calm - N/A   Clear
9:55 PM 35.8 °F 31.9 °F 29.3 °F 77% 30.29 in 10.0 mi SSE 4.6 mph - N/A   Clear
10:15 PM 37.0 °F 32.4 °F 29.3 °F 74% 30.28 in 10.0 mi SSE 5.8 mph - N/A   Clear
10:35 PM 38.3 °F 32.5 °F 29.7 °F 71% 30.28 in 10.0 mi SSE 8.1 mph - N/A   Clear
10:55 PM 37.9 °F 32.7 °F 29.5 °F 72% 30.27 in 10.0 mi SSE 6.9 mph - N/A   Clear
11:15 PM 38.5 °F 32.7 °F 29.8 °F 71% 30.26 in 10.0 mi SSE 8.1 mph - N/A   Clear
11:35 PM 39.6 °F 34.0 °F 29.7 °F 68% 30.24 in 10.0 mi SE 8.1 mph - N/A   Clear
11:55 PM 40.1 °F 35.3 °F 30.0 °F 67% 30.23 in 10.0 mi SSE 6.9 mph - N/A   Clear